Location: Dzierzno
(50.6159°N, 19.2852°E)
Time: 21:09:59
(UTC+00:00)

Cosmos 2026 Rocket - Pass Details

Date: 18 November 2025
Orbit: 938 x 1000 km, 82.9° (Epoch: 10 December)

Event Time Altitude Azimuth Distance (km) Brightness Sun altitude
Rises 16:27:39 0° 354° (N) 3,615 6.9 -14.8°
Reaches altitude 10° 16:30:21 10° 3° (N) 2,670 6.1 -15.2°
Maximum altitude 16:35:58 37° 70° (ENE) 1,437 4.4 -16.1°
Drops below altitude 10° 16:41:35 10° 137° (SE) 2,682 6.0 -17.0°
Sets 16:44:18 0° 145° (SE) 3,633 6.7 -17.4°
